When you browse on this site, cookies collect data to enhance your experience and personalize the content and advertising you see.
Visit our Privacy Policy to learn more. By continuing to use the site, you agree to this use of cookies and data.
  • In Hungary
  • List of Countries
  • For 7 days
  • Water Temperature
  • Satellite Maps
  • Weather Map
  • News
  • Weather Widgets
  • user-avatar
    Login

    Hourly Weather Chittaranjan

    Today, 21 November, Wednesday

    Time Temperature Precipitation Wind Pressure Humidity
    00:00 +23°C° 0 mm 1 mps 746 mmHg 48%
    01:00 +23°C° 0 mm 1 mps 746 mmHg 48%
    02:00 +22°C° 0 mm 1 mps 746 mmHg 49%
    03:00 +22°C° 0 mm 1 mps 746 mmHg 50%
    04:00 +22°C° 0 mm 1 mps 746 mmHg 50%
    05:00 +21°C° 0 mm 1 mps 746 mmHg 51%
    06:00 +20°C° 0 mm 1 mps 746 mmHg 53%
    07:00 +22°C° 0 mm 1 mps 747 mmHg 49%
    08:00 +24°C° 0 mm 1 mps 747 mmHg 46%
    09:00 +25°C° 0 mm 1 mps 747 mmHg 42%
    10:00 +27°C° 0 mm 1 mps 747 mmHg 38%
    11:00 +29°C° 0 mm 1 mps 747 mmHg 34%
    12:00 +31°C° 0 mm 1 mps 747 mmHg 29%
    13:00 +31°C° 0 mm 2 mps 746 mmHg 28%
    14:00 +31°C° 0 mm 2 mps 745 mmHg 27%
    15:00 +32°C° 0 mm 2 mps 745 mmHg 25%
    16:00 +30°C° 0 mm 2 mps 745 mmHg 29%
    17:00 +28°C° 0 mm 2 mps 744 mmHg 32%
    18:00 +27°C° 0 mm 2 mps 745 mmHg 35%
    19:00 +26°C° 0 mm 2 mps 745 mmHg 38%
    20:00 +25°C° 0 mm 2 mps 745 mmHg 40%
    21:00 +24°C° 0 mm 2 mps 746 mmHg 42%
    22:00 +24°C° 0 mm 2 mps 746 mmHg 44%
    23:00 +23°C° 0 mm 2 mps 746 mmHg 45%

    Tomorrow, 22 November, Thursday

    Time Temperature Precipitation Wind Pressure Humidity
    00:00 +23°C° 0 mm 1 mps 746 mmHg 46%
    01:00 +22°C° 0 mm 1 mps 746 mmHg 47%
    02:00 +22°C° 0 mm 1 mps 746 mmHg 49%
    03:00 +21°C° 0 mm 1 mps 745 mmHg 50%
    04:00 +21°C° 0 mm 1 mps 746 mmHg 51%
    05:00 +20°C° 0 mm 1 mps 746 mmHg 52%
    06:00 +20°C° 0 mm 1 mps 746 mmHg 53%
    07:00 +22°C° 0 mm 1 mps 747 mmHg 49%
    08:00 +24°C° 0 mm 1 mps 747 mmHg 45%
    09:00 +25°C° 0 mm 1 mps 748 mmHg 41%
    10:00 +27°C° 0 mm 1 mps 747 mmHg 36%
    11:00 +28°C° 0 mm 2 mps 747 mmHg 31%
    12:00 +30°C° 0 mm 2 mps 747 mmHg 26%
    13:00 +30°C° 0 mm 3 mps 746 mmHg 25%
    14:00 +31°C° 0 mm 3 mps 746 mmHg 24%
    15:00 +31°C° 0 mm 3 mps 745 mmHg 22%
    16:00 +29°C° 0 mm 3 mps 745 mmHg 26%
    17:00 +27°C° 0 mm 3 mps 745 mmHg 29%
    18:00 +26°C° 0 mm 2 mps 745 mmHg 32%
    19:00 +25°C° 0 mm 2 mps 746 mmHg 35%
    20:00 +24°C° 0 mm 2 mps 746 mmHg 37%
    21:00 +23°C° 0 mm 2 mps 747 mmHg 39%
    22:00 +23°C° 0 mm 2 mps 747 mmHg 40%
    23:00 +21°C° 0 mm 2 mps 747 mmHg 41%

    Day after tomorrow, 23 November, Friday

    Time Temperature Precipitation Wind Pressure Humidity
    00:00 +21°C° 0 mm 2 mps 747 mmHg 43%
    01:00 +20°C° 0 mm 2 mps 747 mmHg 43%
    02:00 +20°C° 0 mm 2 mps 746 mmHg 44%
    03:00 +20°C° 0 mm 2 mps 746 mmHg 44%
    04:00 +19°C° 0 mm 2 mps 746 mmHg 45%
    05:00 +19°C° 0 mm 2 mps 746 mmHg 45%
    06:00 +19°C° 0 mm 2 mps 746 mmHg 46%
    07:00 +20°C° 0 mm 2 mps 747 mmHg 43%
    08:00 +23°C° 0 mm 2 mps 747 mmHg 39%
    09:00 +25°C° 0 mm 2 mps 748 mmHg 36%
    10:00 +26°C° 0 mm 2 mps 748 mmHg 33%
    11:00 +28°C° 0 mm 2 mps 747 mmHg 29%
    12:00 +29°C° 0 mm 3 mps 747 mmHg 26%
    13:00 +30°C° 0 mm 3 mps 746 mmHg 25%
    14:00 +30°C° 0 mm 3 mps 745 mmHg 25%
    15:00 +30°C° 0 mm 3 mps 745 mmHg 24%
    16:00 +29°C° 0 mm 3 mps 745 mmHg 28%
    17:00 +27°C° 0 mm 3 mps 745 mmHg 32%
    18:00 +25°C° 0 mm 2 mps 745 mmHg 36%
    19:00 +24°C° 0 mm 2 mps 745 mmHg 38%
    20:00 +24°C° 0 mm 2 mps 746 mmHg 40%
    21:00 +23°C° 0 mm 2 mps 746 mmHg 42%
    22:00 +21°C° 0 mm 2 mps 746 mmHg 43%
    23:00 +21°C° 0 mm 2 mps 746 mmHg 44%

    24 November, Saturday

    Time Temperature Precipitation Wind Pressure Humidity
    00:00 +20°C° 0 mm 2 mps 746 mmHg 45%
    01:00 +20°C° 0 mm 2 mps 746 mmHg 45%
    02:00 +20°C° 0 mm 2 mps 745 mmHg 46%
    03:00 +19°C° 0 mm 2 mps 745 mmHg 46%
    04:00 +19°C° 0 mm 2 mps 745 mmHg 46%
    05:00 +19°C° 0 mm 2 mps 745 mmHg 46%
    06:00 +18°C° 0 mm 2 mps 746 mmHg 46%
    07:00 +20°C° 0 mm 2 mps 746 mmHg 43%
    08:00 +23°C° 0 mm 2 mps 747 mmHg 39%
    09:00 +24°C° 0 mm 2 mps 748 mmHg 35%
    10:00 +26°C° 0 mm 2 mps 748 mmHg 33%
    11:00 +27°C° 0 mm 2 mps 747 mmHg 30%
    12:00 +29°C° 0 mm 2 mps 747 mmHg 27%
    13:00 +29°C° 0 mm 2 mps 746 mmHg 26%
    14:00 +30°C° 0 mm 2 mps 746 mmHg 25%
    15:00 +30°C° 0 mm 2 mps 745 mmHg 24%
    16:00 +28°C° 0 mm 2 mps 745 mmHg 26%
    17:00 +27°C° 0 mm 2 mps 745 mmHg 29%
    18:00 +25°C° 0 mm 2 mps 745 mmHg 32%
    19:00 +24°C° 0 mm 2 mps 746 mmHg 34%
    20:00 +24°C° 0 mm 2 mps 746 mmHg 36%
    21:00 +23°C° 0 mm 2 mps 747 mmHg 38%
    22:00 +21°C° 0 mm 2 mps 747 mmHg 39%
    23:00 +21°C° 0 mm 2 mps 747 mmHg 40%

    25 November, Sunday

    Time Temperature Precipitation Wind Pressure Humidity
    00:00 +20°C° 0 mm 2 mps 747 mmHg 41%
    01:00 +20°C° 0 mm 2 mps 746 mmHg 41%
    02:00 +19°C° 0 mm 2 mps 746 mmHg 42%
    03:00 +19°C° 0 mm 2 mps 745 mmHg 42%
    04:00 +19°C° 0 mm 2 mps 746 mmHg 42%
    05:00 +18°C° 0 mm 2 mps 746 mmHg 42%
    06:00 +19°C° 0 mm 1 mps 746 mmHg 42%
    07:00 +21°C° 0 mm 1 mps 746 mmHg 40%
    08:00 +21°C° 0 mm 2 mps 747 mmHg 37%
    09:00 +24°C° 0 mm 2 mps 748 mmHg 34%
    10:00 +26°C° 0 mm 2 mps 747 mmHg 32%
    11:00 +27°C° 0 mm 2 mps 747 mmHg 29%
    12:00 +29°C° 0 mm 2 mps 746 mmHg 27%
    13:00 +29°C° 0 mm 2 mps 746 mmHg 27%
    14:00 +30°C° 0 mm 2 mps 745 mmHg 26%
    15:00 +30°C° 0 mm 2 mps 744 mmHg 26%
    16:00 +28°C° 0 mm 2 mps 744 mmHg 30%
    17:00 +27°C° 0 mm 2 mps 744 mmHg 33%
    18:00 +25°C° 0 mm 2 mps 744 mmHg 37%
    19:00 +25°C° 0 mm 2 mps 745 mmHg 39%
    20:00 +24°C° 0 mm 2 mps 745 mmHg 42%
    21:00 +23°C° 0 mm 2 mps 746 mmHg 44%
    22:00 +23°C° 0 mm 2 mps 746 mmHg 45%
    23:00 +21°C° 0 mm 2 mps 746 mmHg 47%

    26 November, Monday

    Time Temperature Precipitation Wind Pressure Humidity
    00:00 +21°C° 0 mm 2 mps 745 mmHg 48%
    01:00 +20°C° 0 mm 2 mps 745 mmHg 49%
    02:00 +20°C° 0 mm 2 mps 745 mmHg 50%
    03:00 +20°C° 0 mm 2 mps 744 mmHg 51%
    04:00 +20°C° 0 mm 1 mps 745 mmHg 52%
    05:00 +20°C° 0 mm 1 mps 745 mmHg 53%
    06:00 +20°C° 0 mm 1 mps 745 mmHg 54%
    07:00 +21°C° 0 mm 1 mps 745 mmHg 51%
    08:00 +23°C° 0 mm 2 mps 746 mmHg 47%
    09:00 +25°C° 0 mm 2 mps 747 mmHg 44%
    10:00 +26°C° 0 mm 2 mps 746 mmHg 40%
    11:00 +27°C° 0 mm 2 mps 746 mmHg 37%
    12:00 +29°C° 0 mm 2 mps 745 mmHg 33%
    13:00 +29°C° 0 mm 2 mps 745 mmHg 31%
    14:00 +30°C° 0 mm 2 mps 744 mmHg 30%
    15:00 +30°C° 0 mm 2 mps 743 mmHg 28%
    16:00 +29°C° 0 mm 2 mps 743 mmHg 31%
    17:00 +27°C° 0 mm 2 mps 744 mmHg 35%
    18:00 +26°C° 0 mm 2 mps 744 mmHg 38%
    19:00 +25°C° 0 mm 1 mps 744 mmHg 40%
    20:00 +24°C° 0 mm 1 mps 745 mmHg 42%
    21:00 +23°C° 0 mm 1 mps 745 mmHg 44%
    22:00 +23°C° 0 mm 1 mps 745 mmHg 45%
    23:00 +22°C° 0 mm 1 mps 745 mmHg 46%
    Show more